SCP
-0 0 0 0 0 0 0 0 -0 -0 -0 -0 -0 0 0 0 0 0 0 0 0 0 0 0 0 0 0 0 0 0 0 0 0 0 0 0 0 0 0 0 0 0 0 0 0 0 0 0 0
-0 0 0 0 0 0 0 0 -0 -0 -0 -0 -0 0 0 0 0 0 0 0 0 0 0 0 0 0 0 0 0 0 0 0 0 0 0 0 0 0 0 0 0 0 0 0 0 0 0 0 0
0 0 0 0 0 0 0 0 -0 -0 -0 -0 -0 -0 0 0 0 0 0 0 0 0 0 0 0 0 0 0 0 0 0 0 0 0 0 0 0 0 0 0 0 0 0 0 0 0 0 0 0
0 0 0 0 0 0 0 0 -0 -0 -0 -0 -0 0 0 0 0 0 0 0 0 0 0 0 0 0 0 0 0 0 0 0 0 0 0 0 0 0 0 0 0 0 0 0 0 0 0 0 0
0 0 0 0 0 0 0 -0 -0 -0 -0 -0 -0 0 0 0 0 0 0 0 0 0 0 0 0 0 0 0 0 0 0 0 0 0 0 0 0 0 0 0 0 0 0 0 0 0 0 0 0
0 0 0 0 0 0 0 0 0 0 0 -0 -0 0 0 0 0 0 0 0 0 0 0 0 0 0 0 0 0 0 0 0 0 0 0 0 0 0 0 0 0 0 0 0 0 0 0 0 0
0 0 0 0 0 0 0 0 0 0 0 0 0 0 0 0 0 0 0 0 0 0 0 0 0 0 0 0 0 0 0 0 0 0 0 0 0 0 0 0 0 0 0 0 0 0 0 0 0
0 0 0 0 0 0 0 0 0 0 0 0 0 0 0 0 0 0 0 0 0 0 0 0 0 0 0 0 0 0 0 0 0 0 0 0 0 0 0 0 0 0 0 0 0 0 0 0 0
0 0 0 0 0 0 0 0 0 0 0 0 0 0 0 0 0 0 0 0 0 0 0 0 0 0 0 0 0 0 0 0 0 0 0 0 0 0 0 0 0 0 0 0 0 0 0 0 0
0 0 0 0 0 0 0 0 0 0 0 0 0 0 0 0 0 0 0 0 0 0 0 0 0 0 0 0 0 0 0 0 0 0 0 0 0 0 0 0 0 0 0 0 0 0 0 0 0
0 0 0 0 0 0 0 0 0 0 0 0 0 0 0 0 0 0 0 0 0 0 0 0 0 0 0 0 0 0 0 0 0 0 0 0 0 0 0 0 0 0 0 0 0 0 0 0 0
0 0 0 0 0 0 0 0 0 0 0 0 0 0 0 0 0 0 0 0 0 0 0 0 0 0 0 0 0 0 0 0 0 0 0 0 0 0 0 0 0 0 0 0 0 0 0 0 0
0 0 0 0 0 0 0 0 0 0 0 0 0 0 0 0 0 0 0 0 0 0 0 0 0 0 0 0 0 0 0 0 0 0 0 0 0 0 0 0 0 0 0 0 0 0 0 0 0
0 0 0 0 0 0 0 0 0 0 0 0 0 0 0 0 0 0 0 0 0 0 0 0 0 0 0 0 0 0 0 0 0 0 0 0 0 0 0 0 0 0 0 0 0 0 0 0 0
0 0 0 0 0 0 0 0 0 0 0 0 0 0 0 0 0 0 0 0 0 0 0 0 0 0 0 0 0 0 0 0 0 0 0 0 0 0 0 0 0 0 0 0 0 0 0 0 0
0 0 0 0 0 0 0 0 0 0 0 0 0 0 0 0 0 0 0 0 0 0 0 0 0 0 0 0 0 0 0 0 0 0 0 0 0 0 0 0 0 0 0 0 0 0 0 0 0
0 0 0 0 0 0 0 0 0 0 0 0 0 0 0 0 0 0 0 0 0 0 0 0 0 0 0 0 0 0 0 0 0 0 0 0 0 0 0 0 0 0 0 0 0 0 0 0 0
0 0 0 0 0 0 0 0 0 0 0 0 0 0 0 0 0 0 0 0 0 0 0 0 0 0 0 0 0 0 0 0 0 0 0 0 0 0 0 0 0 0 0 0 0 0 0 0 0
0 0 0 0 0 0 0 0 0 0 0 0 0 0 0 0 0 0 0 0 0 0 0 0 0 0 0 0 0 0 0 0 0 0 0 0 0 0 0 0 0 0 0 0 0 0 0 0 0
0 0 0 0 0 0 0 0 0 0 0 0 0 0 0 0 0 0 0 0 0 0 0 0 0 0 0 0 0 0 0 0 0 0 0 0 0 0 0 0 0 0 0 0 0 0 0 0 0
0 0 0 0 0 0 0 0 0 0 0 0 0 0 0 0 0 0 0 0 0 0 0 0 0 0 0 0 0 0 0 0 0 0 0 0 0 0 0 0 0 0 0 0 0 0 0 0 0
0 0 0 0 0 0 0 0 0 0 0 0 0 0 0 0 0 0 0 0 0 0 0 0 0 0 0 0 0 0 0 0 0 0 0 0 0 0 0 0 0 0 0 0 0 0 0 0 0
0 0 0 0 0 0 0 0 0 0 0 0 0 0 0 0 0 0 0 0 0 0 0 0 0 0 0 0 0 0 0 0 0 0 0 0 0 0 0 0 0 0 0 0 0 0 0 0 0
0 0 0 0 0 0 0 0 0 0 0 0 0 0 0 0 0 0 0 0 0 0 0 0 0 0 0 0 0 0 0 0 0 0 0 0 0 0 0 0 0 0 0 0 0 0 0 0 0
0 0 0 0 0 0 0 0 0 0 0 0 0 0 0 0 0 0 0 0 0 0 0 0 0 0 0 0 0 0 0 0 0 0 0 0 0 0 0 0 0 0 0 0 0 0 0 0 0
0 0 0 0 0 0 0 0 0 0 0 0 0 0 0 0 0 0 0 0 0 0 0 0 0 0 0 0 0 0 0 0 0 0 0 0 0 0 0 0 0 0 0 0 0 0 0 0 0
0 0 0 0 0 0 0 0 0 0 0 0 0 0 0 0 0 0 0 0 0 0 0 0 0 0 0 0 0 0 0 0 0 0 0 0 0 0 0 0 0 0 0 0 0 0 0 0 0
0 0 0 0 0 0 0 0 0 0 0 0 0 0 0 0 0 0 0 0 0 0 0 0 0 0 0 0 0 0 0 0 0 0 0 0 0 0 0 0 0 0 0 0 0 0 0 0 0
0 0 0 0 0 0 0 0 0 0 0 0 0 0 0 0 0 0 0 0 0 0 0 0 0 0 0 0 0 0 0 0 0 0 0 0 0 0 0 0 0 0 0 0 0 0 0 0 0
0 0 0 0 0 0 0 0 0 0 0 0 0 0 0 0 0 0 0 0 0 0 0 0 0 0 0 0 0 0 0 0 0 0 0 0 0 0 0 0 0 0 0 0 0 0 0 0 0
Wind_Speed
2 3 3 4 5 5 6 5 5 6 5 3 3 3 2 2 2 5 6 11 11 16 15 17 15 14 13 13 13 12 12 12 11 11 11 11 11 11 11 11 12 13 13 13 13 13 13 14 14
2 2 4 5 6 6 7 7 7 6 5 5 5 4 4 4 4 7 8 11 13 16 15 15 16 15 14 14 13 12 12 11 11 11 11 11 10 11 11 11 11 12 12 12 12 12 12 13 13
2 3 4 5 6 6 6 7 7 5 5 5 5 3 1 5 6 7 7 14 14 15 14 15 17 15 14 14 13 12 12 11 11 11 11 10 10 10 10 10 11 11 11 11 11 11 11 11 11
3 4 4 6 7 4 3 5 6 8 6 4 4 5 4 4 3 5 11 14 15 16 14 16 16 16 14 14 14 13 12 12 11 11 11 10 10 10 10 9 9 9 10 10 10 10 10 10 10
3 4 6 7 6 4 3 2 6 9 8 6 5 4 7 5 4 7 13 13 15 15 14 16 16 16 15 14 14 13 12 12 11 10 10 10 9 9 8 8 8 8 8 8 8 8 8 8 9
3 4 7 8 7 4 3 4 7 8 7 6 6 5 6 6 6 9 12 12 13 14 13 14 16 15 15 14 14 13 12 12 11 11 10 9 9 8 7 7 6 6 6 6 6 6 6 6 7
3 4 5 6 6 5 3 4 7 8 8 6 5 5 6 8 7 9 12 11 12 13 13 13 14 14 14 14 13 13 12 12 11 10 10 9 8 7 6 6 5 4 4 4 4 5 5 5 6
2 4 5 6 7 5 3 3 3 6 5 3 4 5 4 9 9 10 10 10 12 12 12 12 13 13 13 13 13 12 12 11 11 10 9 8 7 6 6 4 4 3 2 2 2 3 4 4 4
4 6 6 5 5 4 4 4 3 1 3 4 3 1 5 10 12 12 11 10 11 12 12 12 12 12 11 11 12 12 11 11 10 10 10 8 5 5 5 3 2 1 0 1 2 3 3 2 1
5 7 6 2 2 2 3 4 4 6 7 7 6 5 6 10 12 14 14 15 14 15 15 12 12 12 11 9 9 8 8 9 8 7 8 5 4 3 2 4 3 2 2 2 2 2 3 4 2
5 6 4 3 2 2 3 3 4 6 8 9 8 9 11 12 13 14 14 15 15 15 14 13 12 12 11 8 8 6 5 6 6 7 7 5 4 3 3 2 3 4 4 3 2 4 3 4 3
5 5 4 3 3 3 4 3 5 9 9 4 5 5 11 14 15 15 15 14 13 14 15 14 13 12 11 9 8 7 6 5 5 6 7 5 3 3 3 2 2 2 2 3 3 3 4 5 5
8 5 4 4 4 5 6 9 8 11 11 6 5 7 11 13 14 13 12 11 12 13 15 15 15 13 12 10 7 7 7 6 6 5 6 6 4 4 3 3 3 3 3 3 3 4 5 5 6
5 5 5 5 6 4 7 10 8 12 9 8 9 11 12 13 13 12 12 12 13 14 14 15 16 15 13 10 9 8 7 6 6 5 6 6 4 4 3 3 3 3 3 3 4 5 5 5 5
4 5 7 6 5 4 5 11 11 11 7 10 11 11 11 11 12 13 13 12 13 13 14 15 15 15 14 13 11 8 7 7 6 5 6 6 5 4 4 3 3 2 3 3 3 4 4 4 5
5 7 8 5 4 4 7 12 6 3 7 10 11 11 11 12 12 12 11 11 11 12 13 14 12 15 15 12 11 7 7 7 6 5 5 6 5 5 4 3 2 2 2 2 3 4 4 5 5
8 9 9 5 4 4 8 11 8 4 8 12 12 12 12 12 13 12 11 10 11 12 13 14 15 15 14 12 9 7 6 6 5 4 4 5 5 4 4 2 2 2 2 2 2 3 4 5 5
9 9 8 7 3 6 10 14 15 11 11 14 14 13 13 14 14 12 11 10 10 11 12 14 14 14 13 10 8 6 6 5 4 4 4 5 4 4 4 2 2 2 2 2 2 2 3 4 5
8 9 11 9 3 6 12 17 17 15 14 16 16 15 15 15 12 10 10 10 10 11 13 14 15 14 12 9 9 8 7 6 5 4 5 5 5 4 3 2 2 2 1 1 2 2 3 3 4
11 12 13 9 4 6 12 18 19 17 17 16 16 16 15 14 12 12 12 11 12 13 13 14 15 15 14 11 9 6 6 5 4 4 5 5 5 4 3 4 3 2 2 2 1 1 2 2 2
15 15 14 12 7 7 10 15 13 10 11 12 13 14 14 14 15 14 14 13 13 13 14 12 15 15 14 13 8 7 6 5 5 5 5 5 5 5 5 4 3 3 2 1 1 1 2 3 2
15 12 12 11 10 8 5 11 11 10 11 11 10 10 11 12 13 13 14 14 14 13 12 13 14 14 14 13 12 13 9 8 7 6 6 6 6 6 5 5 4 3 2 2 1 1 2 3 3
10 5 7 8 10 12 10 11 11 8 11 9 6 6 7 9 11 13 14 14 13 12 12 12 13 13 13 13 14 13 10 8 7 7 8 7 6 6 5 5 4 4 2 2 2 2 2 3 3
8 6 4 4 7 13 11 12 11 6 7 8 7 6 5 6 9 11 12 12 12 11 11 12 13 13 13 13 13 13 12 11 11 10 9 7 5 5 6 5 4 4 3 2 2 3 3 3 4
12 9 6 8 9 9 4 9 11 9 8 10 12 11 7 5 8 11 14 14 14 14 13 13 14 14 13 13 13 13 13 13 13 11 10 8 6 5 7 6 5 4 3 3 3 3 4 5 5
16 16 11 7 7 4 6 10 9 8 9 9 10 9 6 5 8 11 13 14 14 15 15 15 15 14 14 13 12 11 11 9 8 10 8 8 6 6 7 6 5 4 4 4 4 4 4 5 6
13 15 13 10 6 8 9 8 9 9 8 6 5 5 4 4 8 11 12 14 14 15 15 15 15 14 14 13 12 11 11 10 9 9 8 6 6 5 7 6 6 5 5 4 4 4 5 5 6
11 11 8 9 8 10 10 10 8 8 6 5 5 5 3 3 7 10 11 13 13 13 14 14 14 14 14 13 12 9 11 10 10 9 9 8 7 7 7 6 6 5 5 5 5 5 6 7 7
13 14 11 10 10 8 8 7 6 7 5 6 6 5 3 3 6 9 10 12 12 12 13 14 14 14 13 13 12 11 11 10 10 9 9 8 7 7 7 7 6 6 6 6 6 7 7 8 9
17 18 18 14 12 10 9 7 3 5 5 6 6 5 2 2 5 8 10 11 12 13 14 14 14 14 13 13 12 12 11 10 10 9 9 8 8 7 7 6 6 6 6 7 7 8 8 9 10
Wind_Direction
271 284 255 226 212 214 197 166 165 155 164 136 139 180 163 89 38 72 98 149 146 154 157 158 158 155 150 143 135 128 123 120 112 105 100 94 89 83 77 72 68 64 61 59 58 58 58 56 56
287 260 226 220 222 200 179 175 176 159 124 126 142 159 153 109 71 101 134 153 155 156 159 159 155 155 149 143 138 133 129 124 119 112 104 98 91 85 80 75 71 67 64 62 60 59 59 56 54
236 255 227 205 219 210 166 172 171 143 146 166 153 166 133 110 118 123 133 154 158 158 161 152 157 156 152 149 143 137 133 129 124 117 109 102 94 88 82 78 74 71 68 66 63 60 58 57 54
231 213 218 223 203 199 178 153 162 161 167 189 180 154 129 79 91 107 136 156 159 160 161 154 161 158 156 154 148 143 139 135 129 123 115 107 99 93 87 82 78 74 71 69 66 62 58 55 53
236 223 206 207 199 182 193 168 177 182 175 177 199 166 138 111 103 129 149 159 161 160 161 157 164 162 160 158 153 147 145 142 138 131 123 115 108 102 96 90 84 78 72 68 65 63 58 54 50
212 224 215 202 188 180 184 182 190 194 177 173 198 185 130 122 143 145 156 163 163 161 162 159 166 167 164 161 158 155 153 151 147 140 131 124 120 115 107 99 91 82 74 66 62 58 55 51 48
232 218 219 205 192 186 168 180 199 193 192 181 195 199 143 142 134 149 159 162 164 165 166 165 169 170 169 165 162 159 158 156 153 147 138 133 131 128 117 106 100 91 80 68 58 52 46 41 37
272 222 204 205 201 185 149 171 201 212 194 135 207 221 160 135 137 147 154 162 167 171 174 172 173 173 173 170 165 163 163 160 157 150 143 142 143 137 128 134 119 109 92 67 43 37 36 32 19
241 230 212 203 205 178 158 180 160 217 176 173 207 319 72 123 142 149 155 165 173 180 181 181 178 176 176 172 164 168 167 163 160 154 149 161 166 153 156 132 152 177 169 350 359 8 8 333 309
221 228 216 198 219 180 175 204 174 190 203 201 196 167 139 154 166 171 175 176 180 185 187 185 184 179 177 172 171 177 174 171 177 168 166 173 168 169 177 151 200 233 257 262 307 315 274 277 307
213 228 207 207 221 236 214 214 200 220 226 229 228 199 172 178 187 191 191 187 186 186 187 190 188 185 181 178 178 177 176 174 179 176 175 177 179 186 202 204 198 216 233 251 247 257 285 304 317
215 213 215 209 186 220 235 232 224 232 248 258 250 212 183 194 198 200 198 192 186 188 191 193 191 190 189 185 181 181 178 180 180 182 186 187 192 204 210 227 234 247 249 264 271 284 289 289 292
219 214 216 230 226 242 248 245 256 250 253 254 233 209 208 208 208 207 205 195 191 192 193 194 194 193 190 189 185 187 186 184 184 185 193 199 203 213 218 227 230 240 256 264 273 281 293 295 299
211 216 226 240 240 233 249 259 251 255 253 243 232 225 221 217 213 206 203 201 198 196 194 193 195 194 191 190 189 190 189 187 186 187 195 203 213 217 222 228 234 244 255 269 277 285 291 293 298
200 227 238 229 229 227 244 254 241 257 247 243 239 232 227 223 216 213 208 207 204 200 195 193 194 194 194 194 193 191 188 186 188 192 198 204 213 219 222 237 241 248 256 262 271 277 282 292 292
199 228 237 207 212 200 232 261 252 247 235 251 248 239 228 223 220 218 213 212 208 201 195 191 189 193 194 194 191 189 188 185 188 192 198 200 204 210 221 232 242 248 254 263 274 285 287 290 297
215 234 238 229 196 202 233 266 273 254 249 260 256 245 233 226 221 216 211 209 206 200 192 188 187 190 191 189 184 181 179 181 181 186 187 189 196 201 210 220 225 223 244 261 273 283 301 305 309
219 231 237 245 195 222 252 268 276 270 257 263 261 250 237 230 224 210 203 202 199 195 189 186 185 187 183 178 173 166 166 171 171 176 177 176 176 187 195 194 203 213 227 248 266 285 302 310 317
239 243 254 261 243 253 268 276 278 278 265 259 257 250 239 233 222 201 195 191 189 187 185 184 182 182 178 175 175 174 173 166 160 160 163 169 168 171 175 177 182 196 214 245 282 295 298 311 327
227 243 258 269 241 256 281 281 278 273 265 261 261 254 244 232 210 196 192 188 188 185 183 182 182 181 182 181 176 174 159 153 145 149 153 158 160 159 161 173 170 172 180 192 222 289 298 315 332
227 240 253 265 277 248 283 279 266 264 261 261 258 256 250 234 216 199 191 189 187 185 183 181 180 180 181 173 157 140 131 135 152 159 154 156 156 154 156 162 163 163 182 181 199 262 289 304 311
233 232 246 258 270 276 280 292 284 278 277 267 262 253 246 231 219 203 191 187 187 183 178 178 176 177 175 171 172 171 175 175 176 166 157 153 155 153 155 157 160 162 171 180 188 240 272 283 291
229 207 220 244 259 271 250 266 278 274 272 279 280 271 254 234 217 204 195 187 182 174 173 174 172 174 174 179 180 181 182 171 154 154 156 157 155 156 158 162 165 167 175 185 201 230 252 268 280
160 136 147 213 247 258 250 248 274 255 265 292 301 302 276 237 214 202 189 179 173 170 171 171 172 173 175 180 181 184 176 164 158 164 164 165 161 162 166 170 173 177 182 194 217 239 251 263 269
186 201 221 225 221 245 192 236 258 266 270 285 295 302 300 241 206 192 182 179 175 174 173 174 174 173 176 179 182 182 176 171 172 172 173 172 171 174 175 180 184 186 192 206 225 241 255 259 265
196 208 220 239 247 238 192 239 258 279 285 282 281 287 285 234 202 193 188 184 179 177 177 178 178 175 175 178 179 177 172 173 174 177 175 179 179 176 173 182 190 196 204 214 228 247 253 260 262
186 212 231 255 270 267 245 247 275 272 271 279 289 289 275 226 200 194 190 188 183 181 182 182 179 177 177 178 174 173 172 173 171 172 174 175 173 168 177 186 195 203 213 226 237 249 256 261 264
210 186 185 215 235 245 248 246 247 252 270 306 319 324 308 209 198 194 192 190 187 185 183 184 183 180 178 177 175 173 174 173 169 170 175 176 174 175 182 192 202 212 221 230 240 253 259 263 265
182 192 203 212 231 243 252 237 223 245 274 298 317 328 311 211 196 194 193 190 187 185 184 185 185 181 178 179 176 174 173 172 172 176 179 178 179 183 192 199 210 220 229 237 244 251 260 264 268
206 204 202 211 215 229 255 256 194 238 263 276 293 309 303 215 196 194 191 188 187 188 188 188 188 186 183 180 178 177 173 173 177 181 181 182 186 191 198 205 215 225 235 243 251 258 261 264 269